Вернуться в каталог

STARLINK-32460

АктивенСвязьVLEO
NORAD 61914·PAYLOAD·🇺🇸 United States

Запущен Nov 11, 2024 с Cape Canaveral Space Force Station

Loading…

Ближайшие Пролёты (ближайшие 24 часа)

TLE

СвежийSource: CelesTrak SupGP

Эпоха: Sep 15, 2026, 03:41 UTC

1 61914C 24207C   26258.15395833  .00003254  00000+0  11782-3 0  2589
2 61914  43.0026 291.3342 0001666 269.5308  68.6434 15.27586528    15

Отслеживайте STARLINK-32460 в реальном времени с AllMySat

Download on the App Store